| time (UTC) | temp F | wind direction | speed MPH | gust MPH | rain 1hr in | rain 24hr in | rain mn in | humidity % | barometer mb |
| 20260510033552 | 70 | 115 | 16.0 | 25.0 | 0.00 | 0.00 | 0.00 | 66 | 1004.0 |
| 20260510033102 | 70 | 138 | 17.0 | 24.0 | 0.00 | 0.00 | 0.00 | 65 | 1003.8 |
| 20260510032551 | 70 | 132 | 15.0 | 20.0 | 0.00 | 0.00 | 0.00 | 64 | 1003.8 |
| 20260510032052 | 71 | 136 | 13.0 | 20.0 | 0.00 | 0.00 | 0.00 | 64 | 1003.9 |
| 20260510031556 | 71 | 130 | 15.0 | 24.0 | 0.00 | 0.00 | 0.00 | 64 | 1003.9 |
| 20260510031053 | 71 | 125 | 19.0 | 24.0 | 0.00 | 0.00 | 0.00 | 64 | 1003.9 |
| 20260510030554 | 71 | 153 | 16.0 | 24.0 | 0.00 | 0.00 | 0.00 | 61 | 1003.6 |
| 20260510030051 | 71 | 144 | 14.0 | 27.0 | 0.00 | 0.00 | 0.00 | 59 | 1003.3 |
| 20260510025550 | 71 | 126 | 20.0 | 31.0 | 0.00 | 0.00 | 0.00 | 60 | 1002.9 |
| 20260510025054 | 71 | 136 | 21.0 | 30.0 | 0.00 | 0.00 | 0.00 | 59 | 1002.5 |
| 20260510024607 | 72 | 123 | 20.0 | 30.0 | 0.00 | 0.00 | 0.00 | 60 | 1002.3 |
| 20260510024053 | 72 | 121 | 22.0 | 32.0 | 0.00 | 0.00 | 0.00 | 60 | 1002.3 |
| 20260510023549 | 73 | 123 | 21.0 | 33.0 | 0.00 | 0.00 | 0.00 | 58 | 1002.2 |
| 20260510023055 | 73 | 114 | 24.0 | 33.0 | 0.00 | 0.00 | 0.00 | 57 | 1001.8 |
| 20260510022549 | 73 | 119 | 21.0 | 30.0 | 0.00 | 0.00 | 0.00 | 54 | 1002.0 |
| 20260510022052 | 73 | 113 | 18.0 | 28.0 | 0.00 | 0.00 | 0.00 | 52 | 1001.9 |
| 20260510021649 | 73 | 130 | 21.0 | 28.0 | 0.00 | 0.00 | 0.00 | 54 | 1001.8 |
| 20260510021048 | 72 | 123 | 17.0 | 26.0 | 0.00 | 0.00 | 0.00 | 61 | 1002.0 |
| 20260510020548 | 72 | 104 | 17.0 | 26.0 | 0.00 | 0.00 | 0.00 | 65 | 1002.2 |
| 20260510020048 | 71 | 111 | 15.0 | 26.0 | 0.00 | 0.00 | 0.00 | 67 | 1002.6 |
| 20260510015548 | 71 | 126 | 16.0 | 23.0 | 0.00 | 0.00 | 0.00 | 69 | 1002.4 |
| 20260510015050 | 70 | 99 | 15.0 | 23.0 | 0.00 | 0.00 | 0.00 | 70 | 1002.4 |
| 20260510014608 | 70 | 106 | 16.0 | 27.0 | 0.00 | 0.00 | 0.00 | 71 | 1002.8 |
| 20260510014050 | 69 | 73 | 20.0 | 28.0 | 0.00 | 0.00 | 0.00 | 73 | 1002.9 |
| 20260510013547 | 69 | 80 | 19.0 | 28.0 | 0.00 | 0.00 | 0.00 | 73 | 1003.3 |
| 20260510013100 | 68 | 67 | 19.0 | 28.0 | 0.00 | 0.00 | 0.00 | 76 | 1003.8 |
| 20260510012550 | 66 | 55 | 22.0 | 28.0 | 0.00 | 0.00 | 0.00 | 77 | 1003.6 |
| 20260510012046 | 64 | 61 | 19.0 | 31.0 | 0.00 | 0.00 | 0.00 | 78 | 1003.5 |
| 20260510011546 | 67 | 51 | 21.0 | 34.0 | 0.00 | 0.00 | 0.00 | 75 | 1003.3 |
| 20260510011048 | 69 | 66 | 23.0 | 42.0 | 0.00 | 0.00 | 0.00 | 74 | 1003.1 |
| 20260510010547 | 71 | 53 | 29.0 | 42.0 | 0.00 | 0.00 | 0.00 | 67 | 1003.2 |
| 20260510010045 | 81 | 39 | 15.0 | 26.0 | 0.00 | 0.00 | 0.00 | 46 | 1003.8 |
| 20260510005545 | 81 | 348 | 6.0 | 10.0 | 0.00 | 0.00 | 0.00 | 47 | 1004.2 |
| 20260510005047 | 82 | 128 | 1.0 | 18.0 | 0.00 | 0.00 | 0.00 | 46 | 1003.8 |
| 20260510004548 | 82 | 134 | 10.0 | 21.0 | 0.00 | 0.00 | 0.00 | 46 | 1002.6 |
| 20260510004044 | 82 | 135 | 15.0 | 24.0 | 0.00 | 0.00 | 0.00 | 46 | 1001.8 |
| 20260510003544 | 82 | 144 | 18.0 | 27.0 | 0.00 | 0.00 | 0.00 | 46 | 1001.3 |
| 20260510003044 | 82 | 148 | 20.0 | 26.0 | 0.00 | 0.00 | 0.00 | 47 | 1000.8 |
| 20260510002543 | 82 | 138 | 17.0 | 21.0 | 0.00 | 0.00 | 0.00 | 47 | 1000.7 |
| 20260510002044 | 82 | 125 | 14.0 | 24.0 | 0.00 | 0.00 | 0.00 | 46 | 1001.0 |
| 20260510001543 | 83 | 102 | 16.0 | 26.0 | 0.00 | 0.00 | 0.00 | 46 | 1001.2 |
| 20260510001042 | 83 | 103 | 17.0 | 26.0 | 0.00 | 0.00 | 0.00 | 46 | 1000.9 |
| 20260510000542 | 83 | 122 | 15.0 | 23.0 | 0.00 | 0.00 | 0.00 | 46 | 1001.1 |
| 20260510000042 | 83 | 127 | 17.0 | 22.0 | 0.00 | 0.00 | 0.00 | 45 | 1001.3 |
| 20260509235541 | 83 | 126 | 15.0 | 21.0 | 0.00 | 0.00 | 0.00 | 44 | 1001.5 |
| 20260509235045 | 84 | 143 | 13.0 | 23.0 | 0.00 | 0.00 | 0.00 | 43 | 1001.6 |
| 20260509234541 | 84 | 113 | 16.0 | 23.0 | 0.00 | 0.00 | 0.00 | 43 | 1001.5 |
| 20260509234041 | 84 | 121 | 14.0 | 21.0 | 0.00 | 0.00 | 0.00 | 43 | 1001.3 |
| 20260509233540 | 84 | 113 | 16.0 | 21.0 | 0.00 | 0.00 | 0.00 | 43 | 1001.3 |
| 20260509233040 | 85 | 131 | 17.0 | 21.0 | 0.00 | 0.00 | 0.00 | 42 | 1001.3 |
| 20260509232539 | 85 | 120 | 16.0 | 23.0 | 0.00 | 0.00 | 0.00 | 42 | 1001.2 |
| 20260509232040 | 85 | 106 | 13.0 | 23.0 | 0.00 | 0.00 | 0.00 | 41 | 1001.3 |
| 20260509231539 | 86 | 109 | 15.0 | 21.0 | 0.00 | 0.00 | 0.00 | 40 | 1001.3 |
| 20260509231041 | 87 | 138 | 14.0 | 22.0 | 0.00 | 0.00 | 0.00 | 41 | 1001.3 |
| 20260509230538 | 86 | 124 | 12.0 | 22.0 | 0.00 | 0.00 | 0.00 | 41 | 1001.3 |
| 20260509230038 | 86 | 111 | 14.0 | 23.0 | 0.00 | 0.00 | 0.00 | 41 | 1001.3 |
| 20260509225540 | 85 | 133 | 16.0 | 23.0 | 0.00 | 0.00 | 0.00 | 42 | 1001.3 |
| 20260509225037 | 85 | 138 | 14.0 | 21.0 | 0.00 | 0.00 | 0.00 | 42 | 1001.4 |
| 20260509224537 | 86 | 123 | 16.0 | 21.0 | 0.00 | 0.00 | 0.00 | 42 | 1001.6 |
| 20260509224037 | 86 | 143 | 8.0 | 22.0 | 0.00 | 0.00 | 0.00 | 41 | 1001.6 |
| 20260509223534 | 87 | 161 | 15.0 | 22.0 | 0.00 | 0.00 | 0.00 | 40 | 1001.8 |
| 20260509223043 | 87 | 165 | 12.0 | 18.0 | 0.00 | 0.00 | 0.00 | 40 | 1001.8 |
| 20260509222537 | 87 | 149 | 11.0 | 18.0 | 0.00 | 0.00 | 0.00 | 41 | 1001.7 |
| 20260509222035 | 87 | 148 | 14.0 | 20.0 | 0.00 | 0.00 | 0.00 | 40 | 1001.9 |
| 20260509221533 | 87 | 145 | 14.0 | 20.0 | 0.00 | 0.00 | 0.00 | 39 | 1001.9 |
| 20260509221032 | 86 | 126 | 12.0 | 18.0 | 0.00 | 0.00 | 0.00 | 41 | 1002.0 |
| 20260509220531 | 87 | 136 | 13.0 | 22.0 | 0.00 | 0.00 | 0.00 | 41 | 1002.2 |
| 20260509220031 | 87 | 136 | 16.0 | 22.0 | 0.00 | 0.00 | 0.00 | 41 | 1002.2 |
| 20260509215530 | 87 | 160 | 12.0 | 20.0 | 0.00 | 0.00 | 0.00 | 39 | 1002.2 |
| 20260509215029 | 87 | 153 | 14.0 | 20.0 | 0.00 | 0.00 | 0.00 | 40 | 1002.3 |
| 20260509214529 | 87 | 148 | 13.0 | 19.0 | 0.00 | 0.00 | 0.00 | 40 | 1002.4 |
| 20260509214028 | 88 | 156 | 11.0 | 19.0 | 0.00 | 0.00 | 0.00 | 39 | 1002.5 |
| 20260509213528 | 88 | 127 | 13.0 | 18.0 | 0.00 | 0.00 | 0.00 | 38 | 1002.5 |
| 20260509213028 | 88 | 177 | 8.0 | 17.0 | 0.00 | 0.00 | 0.00 | 37 | 1002.6 |
| 20260509212526 | 88 | 148 | 10.0 | 17.0 | 0.00 | 0.00 | 0.00 | 38 | 1002.7 |
| 20260509212026 | 88 | 175 | 9.0 | 17.0 | 0.00 | 0.00 | 0.00 | 37 | 1002.7 |
| 20260509211526 | 88 | 146 | 9.0 | 18.0 | 0.00 | 0.00 | 0.00 | 36 | 1002.9 |
| 20260509211027 | 88 | 155 | 10.0 | 18.0 | 0.00 | 0.00 | 0.00 | 35 | 1002.8 |
| 20260509210526 | 88 | 157 | 13.0 | 17.0 | 0.00 | 0.00 | 0.00 | 35 | 1002.9 |
| 20260509210029 | 88 | 166 | 10.0 | 19.0 | 0.00 | 0.00 | 0.00 | 36 | 1002.9 |
| 20260509205523 | 88 | 121 | 13.0 | 18.0 | 0.00 | 0.00 | 0.00 | 34 | 1003.0 |
| 20260509205026 | 88 | 150 | 11.0 | 17.0 | 0.00 | 0.00 | 0.00 | 35 | 1003.0 |
| 20260509204522 | 88 | 153 | 9.0 | 13.0 | 0.00 | 0.00 | 0.00 | 34 | 1003.1 |
| 20260509204021 | 87 | 153 | 6.0 | 18.0 | 0.00 | 0.00 | 0.00 | 35 | 1003.2 |
| 20260509203520 | 88 | 143 | 12.0 | 18.0 | 0.00 | 0.00 | 0.00 | 35 | 1003.2 |
| 20260509203019 | 87 | 160 | 7.0 | 16.0 | 0.00 | 0.00 | 0.00 | 36 | 1003.4 |
| 20260509202519 | 87 | 133 | 8.0 | 16.0 | 0.00 | 0.00 | 0.00 | 36 | 1003.4 |
| 20260509202019 | 88 | 145 | 9.0 | 19.0 | 0.00 | 0.00 | 0.00 | 35 | 1003.4 |
| 20260509201524 | 87 | 159 | 12.0 | 19.0 | 0.00 | 0.00 | 0.00 | 33 | 1003.5 |
| 20260509201016 | 87 | 135 | 6.0 | 15.0 | 0.00 | 0.00 | 0.00 | 35 | 1003.6 |
| 20260509200516 | 87 | 160 | 6.0 | 15.0 | 0.00 | 0.00 | 0.00 | 35 | 1003.8 |
| 20260509200016 | 87 | 152 | 6.0 | 13.0 | 0.00 | 0.00 | 0.00 | 34 | 1003.8 |
| 20260509195514 | 87 | 146 | 5.0 | 12.0 | 0.00 | 0.00 | 0.00 | 34 | 1003.9 |
| 20260509195012 | 86 | 182 | 7.0 | 16.0 | 0.00 | 0.00 | 0.00 | 35 | 1004.0 |
| 20260509194511 | 86 | 146 | 10.0 | 16.0 | 0.00 | 0.00 | 0.00 | 34 | 1004.0 |
| 20260509194013 | 86 | 159 | 9.0 | 14.0 | 0.00 | 0.00 | 0.00 | 34 | 1004.1 |
| 20260509193510 | 86 | 158 | 7.0 | 13.0 | 0.00 | 0.00 | 0.00 | 36 | 1004.1 |
| 20260509193009 | 86 | 143 | 5.0 | 15.0 | 0.00 | 0.00 | 0.00 | 33 | 1004.3 |
| 20260509192509 | 86 | 154 | 9.0 | 15.0 | 0.00 | 0.00 | 0.00 | 35 | 1004.3 |
| 20260509192008 | 86 | 180 | 8.0 | 15.0 | 0.00 | 0.00 | 0.00 | 35 | 1004.3 |
| 20260509191508 | 86 | 138 | 10.0 | 15.0 | 0.00 | 0.00 | 0.00 | 36 | 1004.4 |
| 20260509191006 | 86 | 144 | 4.0 | 15.0 | 0.00 | 0.00 | 0.00 | 36 | 1004.6 |
| 20260509190505 | 85 | 159 | 6.0 | 13.0 | 0.00 | 0.00 | 0.00 | 33 | 1004.7 |
| 20260509190006 | 85 | 163 | 4.0 | 13.0 | 0.00 | 0.00 | 0.00 | 38 | 1004.8 |
| 20260509185504 | 85 | 161 | 9.0 | 15.0 | 0.00 | 0.00 | 0.00 | 34 | 1004.7 |
| 20260509185003 | 84 | 156 | 9.0 | 15.0 | 0.00 | 0.00 | 0.00 | 36 | 1004.8 |
| 20260509184502 | 84 | 130 | 8.0 | 12.0 | 0.00 | 0.00 | 0.00 | 37 | 1004.9 |
| 20260509184001 | 83 | 169 | 5.0 | 14.0 | 0.00 | 0.00 | 0.00 | 40 | 1004.9 |
| 20260509183559 | 83 | 146 | 2.0 | 14.0 | 0.00 | 0.00 | 0.00 | 42 | 1004.9 |
| 20260509183059 | 83 | 146 | 8.0 | 14.0 | 0.00 | 0.00 | 0.00 | 40 | 1005.1 |
| 20260509182557 | 83 | 121 | 9.0 | 15.0 | 0.00 | 0.00 | 0.00 | 41 | 1005.1 |
| 20260509182056 | 83 | 152 | 10.0 | 14.0 | 0.00 | 0.00 | 0.00 | 42 | 1005.2 |
| 20260509181556 | 83 | 142 | 7.0 | 16.0 | 0.00 | 0.00 | 0.00 | 41 | 1005.3 |
| 20260509181054 | 82 | 179 | 4.0 | 16.0 | 0.00 | 0.00 | 0.00 | 45 | 1005.4 |
| 20260509180554 | 82 | 150 | 7.0 | 11.0 | 0.00 | 0.00 | 0.00 | 45 | 1005.6 |
| 20260509180053 | 82 | 116 | 5.0 | 10.0 | 0.00 | 0.00 | 0.00 | 46 | 1005.7 |
| 20260509175552 | 82 | 234 | 4.0 | 15.0 | 0.00 | 0.00 | 0.00 | 47 | 1005.9 |
| 20260509175052 | 82 | 175 | 8.0 | 15.0 | 0.00 | 0.00 | 0.00 | 46 | 1006.0 |
| 20260509174551 | 82 | 134 | 5.0 | 13.0 | 0.00 | 0.00 | 0.00 | 48 | 1006.0 |
| 20260509174152 | 81 | 171 | 4.0 | 13.0 | 0.00 | 0.00 | 0.00 | 48 | 1006.1 |
| 20260509173549 | 81 | 150 | 2.0 | 10.0 | 0.00 | 0.00 | 0.00 | 49 | 1006.2 |
| 20260509173115 | 81 | 180 | 4.0 | 10.0 | 0.00 | 0.00 | 0.00 | 48 | 1006.3 |
| 20260509172548 | 81 | 215 | 3.0 | 10.0 | 0.00 | 0.00 | 0.00 | 50 | 1006.3 |
| 20260509172047 | 81 | 170 | 4.0 | 10.0 | 0.00 | 0.00 | 0.00 | 52 | 1006.4 |
| 20260509171547 | 80 | 202 | 8.0 | 10.0 | 0.00 | 0.00 | 0.00 | 52 | 1006.5 |
| 20260509171047 | 80 | 204 | 4.0 | 10.0 | 0.00 | 0.00 | 0.00 | 52 | 1006.5 |
| 20260509170548 | 80 | 201 | 4.0 | 11.0 | 0.00 | 0.00 | 0.00 | 51 | 1006.5 |
| 20260509170054 | 80 | 175 | 3.0 | 12.0 | 0.00 | 0.00 | 0.00 | 54 | 1006.6 |
| 20260509165542 | 79 | 245 | 5.0 | 12.0 | 0.00 | 0.00 | 0.00 | 54 | 1006.6 |
| 20260509165041 | 79 | 173 | 4.0 | 9.0 | 0.00 | 0.00 | 0.00 | 55 | 1006.7 |
| 20260509164541 | 79 | 203 | 6.0 | 9.0 | 0.00 | 0.00 | 0.00 | 56 | 1006.8 |
| 20260509164040 | 78 | 187 | 1.0 | 10.0 | 0.00 | 0.00 | 0.00 | 56 | 1006.8 |
| 20260509163539 | 78 | 186 | 6.0 | 10.0 | 0.00 | 0.00 | 0.00 | 55 | 1006.9 |
| 20260509163037 | 77 | 146 | 4.0 | 10.0 | 0.00 | 0.00 | 0.00 | 57 | 1007.0 |
| 20260509162540 | 77 | 191 | 6.0 | 9.0 | 0.00 | 0.00 | 0.00 | 58 | 1007.0 |
| 20260509162035 | 77 | 152 | 6.0 | 10.0 | 0.00 | 0.00 | 0.00 | 57 | 1007.0 |
| 20260509161539 | 76 | 167 | 6.0 | 10.0 | 0.00 | 0.00 | 0.00 | 62 | 1007.2 |
| 20260509161033 | 76 | 164 | 4.0 | 10.0 | 0.00 | 0.00 | 0.00 | 62 | 1007.2 |
| 20260509160532 | 76 | 176 | 3.0 | 9.0 | 0.00 | 0.00 | 0.00 | 63 | 1007.3 |
| 20260509160032 | 75 | 157 | 4.0 | 10.0 | 0.00 | 0.00 | 0.00 | 62 | 1007.3 |
| 20260509155529 | 75 | 165 | 4.0 | 8.0 | 0.00 | 0.00 | 0.00 | 64 | 1007.3 |
| 20260509155028 | 75 | 187 | 5.0 | 10.0 | 0.00 | 0.00 | 0.00 | 66 | 1007.3 |
| 20260509154527 | 74 | 196 | 4.0 | 9.0 | 0.00 | 0.00 | 0.00 | 68 | 1007.3 |
| 20260509154027 | 74 | 205 | 4.0 | 9.0 | 0.00 | 0.00 | 0.00 | 68 | 1007.3 |
| 20260509153524 | 74 | 148 | 5.0 | 11.0 | 0.00 | 0.00 | 0.00 | 69 | 1007.4 |
| 20260509153031 | 73 | 192 | 6.0 | 11.0 | 0.00 | 0.00 | 0.00 | 70 | 1007.5 |
| 20260509152522 | 73 | 165 | 6.0 | 10.0 | 0.00 | 0.00 | 0.00 | 71 | 1007.5 |
| 20260509152020 | 73 | 173 | 7.0 | 13.0 | 0.00 | 0.00 | 0.00 | 69 | 1007.5 |
| 20260509151520 | 73 | 163 | 7.0 | 10.0 | 0.00 | 0.00 | 0.00 | 69 | 1007.6 |
| 20260509151023 | 73 | 163 | 6.0 | 10.0 | 0.00 | 0.00 | 0.00 | 70 | 1007.7 |
| 20260509150516 | 72 | 177 | 6.0 | 11.0 | 0.00 | 0.00 | 0.00 | 71 | 1007.6 |
| 20260509150015 | 71 | 161 | 6.0 | 9.0 | 0.00 | 0.00 | 0.00 | 72 | 1007.7 |
| 20260509145514 | 71 | 197 | 5.0 | 10.0 | 0.00 | 0.00 | 0.00 | 74 | 1007.7 |
| 20260509145013 | 70 | 175 | 6.0 | 11.0 | 0.00 | 0.00 | 0.00 | 76 | 1007.8 |
| 20260509144511 | 70 | 166 | 8.0 | 11.0 | 0.00 | 0.00 | 0.00 | 76 | 1007.8 |
| 20260509144009 | 69 | 176 | 6.0 | 10.0 | 0.00 | 0.00 | 0.00 | 78 | 1007.8 |
| 20260509143513 | 69 | 201 | 4.0 | 9.0 | 0.00 | 0.00 | 0.00 | 78 | 1007.8 |
| 20260509143011 | 68 | 171 | 3.0 | 7.0 | 0.00 | 0.00 | 0.00 | 78 | 1007.8 |
| 20260509142504 | 68 | 159 | 3.0 | 7.0 | 0.00 | 0.00 | 0.00 | 77 | 1007.7 |
| 20260509142004 | 67 | 157 | 4.0 | 7.0 | 0.00 | 0.00 | 0.00 | 76 | 1007.6 |
| 20260509141502 | 67 | 190 | 2.0 | 4.0 | 0.00 | 0.00 | 0.00 | 78 | 1007.6 |
| 20260509141002 | 66 | 196 | 1.0 | 3.0 | 0.00 | 0.00 | 0.00 | 78 | 1007.5 |
| 20260509140601 | 65 | 196 | 0.0 | 4.0 | 0.00 | 0.00 | 0.00 | 79 | 1007.5 |
| 20260509140100 | 64 | 194 | 1.0 | 6.0 | 0.00 | 0.00 | 0.00 | 80 | 1007.5 |
| 20260509135556 | 64 | 195 | 1.0 | 5.0 | 0.00 | 0.00 | 0.00 | 82 | 1007.5 |
| 20260509135058 | 63 | 194 | 0.0 | 0.0 | 0.00 | 0.00 | 0.00 | 83 | 1007.4 |
| 20260509134554 | 62 | 194 | 0.0 | 0.0 | 0.00 | 0.00 | 0.00 | 84 | 1007.4 |
| 20260509134057 | 62 | 192 | 0.0 | 1.0 | 0.00 | 0.00 | 0.00 | 85 | 1007.3 |
| 20260509133553 | 61 | 192 | 0.0 | 1.0 | 0.00 | 0.00 | 0.00 | 86 | 1007.2 |
| 20260509133052 | 61 | 192 | 0.0 | 2.0 | 0.00 | 0.00 | 0.00 | 87 | 1007.2 |
| 20260509132552 | 60 | 192 | 0.0 | 3.0 | 0.00 | 0.00 | 0.00 | 87 | 1007.0 |
| 20260509132051 | 60 | 192 | 1.0 | 3.0 | 0.00 | 0.00 | 0.00 | 89 | 1007.1 |
| 20260509131559 | 59 | 185 | 1.0 | 2.0 | 0.00 | 0.00 | 0.00 | 89 | 1007.1 |
| 20260509131050 | 59 | 185 | 0.0 | 3.0 | 0.00 | 0.00 | 0.00 | 90 | 1007.0 |
| 20260509130550 | 58 | 185 | 2.0 | 3.0 | 0.00 | 0.00 | 0.00 | 91 | 1006.9 |
| 20260509130122 | 58 | 182 | 0.0 | 3.0 | 0.00 | 0.00 | 0.00 | 91 | 1006.8 |
| 20260509125550 | 58 | 180 | 0.0 | 3.0 | 0.00 | 0.00 | 0.00 | 92 | 1006.8 |
| 20260509125051 | 58 | 175 | 0.0 | 2.0 | 0.00 | 0.00 | 0.00 | 92 | 1006.8 |
| 20260509124550 | 57 | 174 | 0.0 | 3.0 | 0.00 | 0.00 | 0.00 | 93 | 1006.8 |
| 20260509124050 | 57 | 174 | 1.0 | 2.0 | 0.00 | 0.00 | 0.00 | 93 | 1006.7 |
| 20260509123553 | 57 | 174 | 0.0 | 3.0 | 0.00 | 0.00 | 0.00 | 93 | 1006.6 |
| 20260509123117 | 57 | 174 | 2.0 | 3.0 | 0.00 | 0.00 | 0.00 | 93 | 1006.6 |
| 20260509122548 | 56 | 174 | 2.0 | 4.0 | 0.00 | 0.00 | 0.00 | 93 | 1006.5 |
| 20260509122050 | 56 | 173 | 2.0 | 5.0 | 0.00 | 0.00 | 0.00 | 93 | 1006.4 |
| 20260509121549 | 56 | 173 | 4.0 | 5.0 | 0.00 | 0.00 | 0.00 | 93 | 1006.4 |
| 20260509121049 | 56 | 98 | 1.0 | 3.0 | 0.00 | 0.00 | 0.00 | 93 | 1006.2 |
| 20260509120549 | 56 | 98 | 1.0 | 3.0 | 0.00 | 0.00 | 0.00 | 93 | 1006.2 |
| 20260509120051 | 56 | 98 | 2.0 | 3.0 | 0.00 | 0.00 | 0.00 | 94 | 1006.2 |
| 20260509115548 | 56 | 96 | 1.0 | 4.0 | 0.00 | 0.00 | 0.00 | 94 | 1006.0 |
| 20260509115048 | 56 | 95 | 1.0 | 4.0 | 0.00 | 0.00 | 0.00 | 94 | 1006.0 |
| 20260509114648 | 55 | 95 | 2.0 | 4.0 | 0.00 | 0.00 | 0.00 | 94 | 1006.1 |
| 20260509114048 | 55 | 52 | 2.0 | 4.0 | 0.00 | 0.00 | 0.00 | 93 | 1005.8 |
| 20260509113547 | 56 | 52 | 2.0 | 3.0 | 0.00 | 0.00 | 0.00 | 94 | 1005.8 |
| 20260509113051 | 56 | 52 | 0.0 | 4.0 | 0.00 | 0.00 | 0.00 | 94 | 1005.9 |
| 20260509112553 | 56 | 52 | 2.0 | 5.0 | 0.00 | 0.00 | 0.00 | 94 | 1005.8 |
| 20260509112045 | 56 | 52 | 3.0 | 5.0 | 0.00 | 0.00 | 0.00 | 93 | 1005.7 |
| 20260509111544 | 56 | 53 | 3.0 | 5.0 | 0.00 | 0.00 | 0.00 | 93 | 1005.8 |
| 20260509111044 | 56 | 55 | 2.0 | 4.0 | 0.00 | 0.00 | 0.00 | 94 | 1005.9 |
| 20260509110543 | 56 | 55 | 2.0 | 5.0 | 0.00 | 0.00 | 0.00 | 94 | 1005.8 |
| 20260509110051 | 56 | 50 | 3.0 | 5.0 | 0.00 | 0.00 | 0.00 | 92 | 1005.6 |
| 20260509105543 | 58 | 275 | 0.0 | 0.0 | 0.00 | 0.00 | 0.00 | 93 | 1005.7 |
| 20260509105042 | 58 | 275 | 0.0 | 0.0 | 0.00 | 0.00 | 0.00 | 94 | 1005.8 |
| 20260509104542 | 58 | 275 | 0.0 | 0.0 | 0.00 | 0.00 | 0.00 | 93 | 1005.8 |
| 20260509104045 | 58 | 275 | 0.0 | 0.0 | 0.00 | 0.00 | 0.00 | 93 | 1005.7 |
| 20260509103541 | 58 | 275 | 0.0 | 0.0 | 0.00 | 0.00 | 0.00 | 93 | 1005.7 |
| 20260509103041 | 58 | 275 | 0.0 | 0.0 | 0.00 | 0.00 | 0.00 | 93 | 1005.7 |
| 20260509102540 | 58 | 275 | 0.0 | 0.0 | 0.00 | 0.00 | 0.00 | 92 | 1005.7 |
| 20260509102105 | 58 | 275 | 0.0 | 0.0 | 0.00 | 0.00 | 0.00 | 93 | 1005.8 |
| 20260509101552 | 58 | 275 | 0.0 | 0.0 | 0.00 | 0.00 | 0.00 | 93 | 1005.8 |
| 20260509101040 | 58 | 275 | 0.0 | 0.0 | 0.00 | 0.00 | 0.00 | 93 | 1005.7 |
| 20260509100539 | 58 | 275 | 0.0 | 0.0 | 0.00 | 0.00 | 0.00 | 93 | 1005.9 |
| 20260509100039 | 57 | 275 | 0.0 | 0.0 | 0.00 | 0.00 | 0.00 | 93 | 1005.9 |
| 20260509095539 | 57 | 275 | 0.0 | 0.0 | 0.00 | 0.00 | 0.00 | 92 | 1005.9 |
| 20260509095039 | 57 | 275 | 0.0 | 0.0 | 0.00 | 0.00 | 0.00 | 92 | 1005.8 |
| 20260509094539 | 57 | 275 | 0.0 | 0.0 | 0.00 | 0.00 | 0.00 | 92 | 1005.8 |
| 20260509094038 | 57 | 275 | 0.0 | 0.0 | 0.00 | 0.00 | 0.00 | 91 | 1005.7 |
| 20260509093536 | 58 | 275 | 0.0 | 0.0 | 0.00 | 0.00 | 0.00 | 92 | 1005.8 |
| 20260509093036 | 58 | 275 | 0.0 | 0.0 | 0.00 | 0.00 | 0.00 | 91 | 1005.8 |
| 20260509092535 | 58 | 275 | 0.0 | 0.0 | 0.00 | 0.00 | 0.00 | 92 | 1005.8 |
| 20260509092034 | 58 | 275 | 0.0 | 0.0 | 0.00 | 0.00 | 0.00 | 92 | 1005.8 |
| 20260509091541 | 58 | 275 | 0.0 | 3.0 | 0.00 | 0.00 | 0.00 | 92 | 1006.0 |
| 20260509091035 | 58 | 275 | 1.0 | 4.0 | 0.00 | 0.00 | 0.00 | 91 | 1006.0 |
| 20260509090534 | 59 | 275 | 3.0 | 4.0 | 0.00 | 0.00 | 0.00 | 91 | 1006.0 |
| 20260509090033 | 59 | 275 | 2.0 | 4.0 | 0.00 | 0.00 | 0.00 | 92 | 1006.1 |
| 20260509085532 | 58 | 275 | 2.0 | 4.0 | 0.00 | 0.00 | 0.00 | 92 | 1006.2 |
| 20260509085034 | 58 | 275 | 2.0 | 4.0 | 0.00 | 0.00 | 0.00 | 91 | 1006.2 |
| 20260509084532 | 58 | 275 | 2.0 | 4.0 | 0.00 | 0.00 | 0.00 | 92 | 1006.2 |
| 20260509084032 | 58 | 259 | 2.0 | 3.0 | 0.00 | 0.00 | 0.00 | 91 | 1006.3 |
| 20260509083531 | 58 | 259 | 2.0 | 4.0 | 0.00 | 0.00 | 0.00 | 90 | 1006.3 |
| 20260509083030 | 58 | 259 | 1.0 | 4.0 | 0.00 | 0.00 | 0.00 | 90 | 1006.3 |
| 20260509082630 | 58 | 259 | 2.0 | 4.0 | 0.00 | 0.00 | 0.00 | 90 | 1006.3 |
| 20260509082029 | 58 | 259 | 3.0 | 4.0 | 0.00 | 0.00 | 0.00 | 91 | 1006.4 |
| 20260509081630 | 58 | 259 | 1.0 | 3.0 | 0.00 | 0.00 | 0.00 | 90 | 1006.5 |
| 20260509081028 | 59 | 259 | 1.0 | 3.0 | 0.00 | 0.00 | 0.00 | 89 | 1006.6 |
| 20260509080528 | 59 | 259 | 2.0 | 3.0 | 0.00 | 0.00 | 0.00 | 90 | 1006.5 |
| 20260509080028 | 58 | 259 | 0.0 | 1.0 | 0.00 | 0.00 | 0.00 | 88 | 1006.6 |
| 20260509075528 | 58 | 259 | 0.0 | 2.0 | 0.00 | 0.00 | 0.00 | 88 | 1006.6 |
| 20260509075032 | 59 | 259 | 1.0 | 3.0 | 0.00 | 0.00 | 0.00 | 88 | 1006.7 |
| 20260509074528 | 59 | 259 | 1.0 | 3.0 | 0.00 | 0.00 | 0.00 | 87 | 1006.7 |
| 20260509074028 | 59 | 259 | 1.0 | 2.0 | 0.00 | 0.00 | 0.00 | 88 | 1006.8 |
| 20260509073527 | 59 | 259 | 0.0 | 2.0 | 0.00 | 0.00 | 0.00 | 88 | 1006.9 |
| 20260509073027 | 59 | 259 | 1.0 | 4.0 | 0.00 | 0.00 | 0.00 | 89 | 1006.9 |
| 20260509072528 | 58 | 259 | 2.0 | 4.0 | 0.00 | 0.00 | 0.00 | 87 | 1006.8 |
| 20260509072024 | 59 | 49 | 0.0 | 0.0 | 0.00 | 0.00 | 0.00 | 88 | 1006.8 |
| 20260509071524 | 59 | 49 | 0.0 | 2.0 | 0.00 | 0.00 | 0.00 | 89 | 1006.7 |
| 20260509071023 | 60 | 49 | 0.0 | 3.0 | 0.00 | 0.00 | 0.00 | 89 | 1006.8 |
| 20260509070522 | 60 | 50 | 0.0 | 3.0 | 0.00 | 0.00 | 0.00 | 89 | 1007.0 |
| 20260509070022 | 61 | 50 | 0.0 | 0.0 | 0.00 | 0.00 | 0.00 | 89 | 1007.0 |
| 20260509065521 | 61 | 50 | 0.0 | 0.0 | 0.00 | 0.00 | 0.00 | 90 | 1006.9 |
| 20260509065022 | 61 | 50 | 0.0 | 1.0 | 0.00 | 0.00 | 0.00 | 90 | 1006.9 |
| 20260509064521 | 60 | 50 | 0.0 | 1.0 | 0.00 | 0.00 | 0.00 | 89 | 1006.9 |
| 20260509064023 | 60 | 50 | 0.0 | 3.0 | 0.00 | 0.00 | 0.00 | 89 | 1006.9 |
| 20260509063521 | 60 | 50 | 1.0 | 3.0 | 0.00 | 0.00 | 0.00 | 89 | 1006.8 |
| 20260509063018 | 60 | 50 | 2.0 | 3.0 | 0.00 | 0.00 | 0.00 | 88 | 1006.7 |
| 20260509062520 | 61 | 49 | 2.0 | 5.0 | 0.00 | 0.00 | 0.00 | 88 | 1006.6 |
| 20260509062017 | 61 | 50 | 2.0 | 6.0 | 0.00 | 0.00 | 0.00 | 88 | 1006.5 |
| 20260509061520 | 61 | 38 | 4.0 | 5.0 | 0.00 | 0.00 | 0.00 | 88 | 1006.6 |
| 20260509061015 | 61 | 27 | 3.0 | 4.0 | 0.00 | 0.00 | 0.00 | 88 | 1006.5 |
| 20260509060516 | 61 | 28 | 1.0 | 4.0 | 0.00 | 0.00 | 0.00 | 88 | 1006.4 |
| 20260509060015 | 61 | 28 | 2.0 | 4.0 | 0.00 | 0.00 | 0.00 | 88 | 1006.5 |
| 20260509055515 | 61 | 28 | 2.0 | 5.0 | 0.00 | 0.00 | 0.00 | 88 | 1006.5 |
| 20260509055014 | 61 | 28 | 4.0 | 5.0 | 0.00 | 0.00 | 0.00 | 87 | 1006.6 |
| 20260509054514 | 61 | 29 | 3.0 | 4.0 | 0.00 | 0.00 | 0.00 | 86 | 1006.6 |
| 20260509054018 | 61 | 49 | 2.0 | 4.0 | 0.00 | 0.00 | 0.00 | 86 | 1006.6 |
| 20260509053512 | 62 | 50 | 2.0 | 4.0 | 0.00 | 0.00 | 0.00 | 85 | 1006.6 |
| 20260509053014 | 62 | 49 | 2.0 | 4.0 | 0.00 | 0.00 | 0.00 | 86 | 1006.6 |
| 20260509052512 | 62 | 45 | 0.0 | 4.0 | 0.00 | 0.00 | 0.00 | 85 | 1006.7 |
| 20260509052009 | 62 | 44 | 1.0 | 5.0 | 0.00 | 0.00 | 0.00 | 85 | 1006.7 |
| 20260509051509 | 62 | 44 | 3.0 | 5.0 | 0.00 | 0.00 | 0.00 | 85 | 1006.6 |
| 20260509051007 | 62 | 95 | 3.0 | 6.0 | 0.00 | 0.00 | 0.00 | 84 | 1006.4 |
| 20260509050508 | 63 | 96 | 2.0 | 4.0 | 0.00 | 0.00 | 0.00 | 84 | 1006.2 |
| 20260509050015 | 63 | 96 | 3.0 | 4.0 | 0.00 | 0.00 | 0.00 | 84 | 1006.2 |
| 20260509045503 | 63 | 96 | 2.0 | 4.0 | 0.00 | 0.00 | 0.00 | 83 | 1006.2 |
| 20260509045010 | 63 | 96 | 2.0 | 4.0 | 0.00 | 0.00 | 0.00 | 83 | 1006.1 |
| 20260509044503 | 63 | 96 | 1.0 | 3.0 | 0.00 | 0.00 | 0.00 | 82 | 1005.9 |
| 20260509044004 | 63 | 96 | 1.0 | 4.0 | 0.00 | 0.00 | 0.00 | 82 | 1005.8 |
| 20260509043502 | 63 | 96 | 2.0 | 4.0 | 0.00 | 0.00 | 0.00 | 81 | 1005.8 |
| 20260509043003 | 63 | 96 | 2.0 | 6.0 | 0.00 | 0.00 | 0.00 | 80 | 1005.7 |
| 20260509042502 | 64 | 96 | 3.0 | 6.0 | 0.00 | 0.00 | 0.00 | 80 | 1005.8 |
| 20260509042004 | 64 | 96 | 0.0 | 2.0 | 0.00 | 0.00 | 0.00 | 79 | 1005.7 |
| 20260509041503 | 65 | 96 | 1.0 | 2.0 | 0.00 | 0.00 | 0.00 | 78 | 1005.7 |
| 20260509041003 | 65 | 96 | 0.0 | 3.0 | 0.00 | 0.00 | 0.00 | 79 | 1005.6 |
| 20260509040501 | 66 | 96 | 2.0 | 4.0 | 0.00 | 0.00 | 0.00 | 79 | 1005.5 |
| 20260509040002 | 66 | 96 | 2.0 | 6.0 | 0.00 | 0.00 | 0.00 | 79 | 1005.4 |
| 20260509035501 | 66 | 97 | 3.0 | 6.0 | 0.00 | 0.00 | 0.00 | 77 | 1005.2 |
| 20260509035002 | 66 | 99 | 3.0 | 6.0 | 0.00 | 0.00 | 0.00 | 79 | 1005.0 |
| 20260509034500 | 66 | 121 | 2.0 | 4.0 | 0.00 | 0.00 | 0.00 | 74 | 1005.0 |
| 20260509034001 | 66 | 121 | 1.0 | 3.0 | 0.00 | 0.00 | 0.00 | 72 | 1004.9 |